Location: Hochstatterhof
(48.7256°N, 10.3487°E)
Time: 21:31:42
(UTC+00:00)

Lacrosse 4 Rocket - Pass Details

Date: 26 September 2023
Orbit: 528 x 604 km, 68.0° (Epoch: 08 December)

Event Time Altitude Azimuth Distance (km) Brightness Sun altitude
Exits shadow 00:59:48 10° 62° (ENE) 1,851 4.6 -36.8°
Drops below altitude 10° 00:59:55 10° 61° (ENE) 1,882 4.6 -36.8°
Enters shadow 02:00:56 -61° 214° (SW) 11,788 8.1 -29.9°
